Wind_Speed
16 16 16 17 17 16 18 15 14 11 8 8 8 9 10 8 9 8 6 6 2 2
17 18 19 18 16 15 15 16 14 9 8 8 9 10 9 10 11 8 6 5 2 2
19 18 18 16 15 14 16 12 10 10 10 8 9 9 9 10 12 9 7 5 2 2
16 20 18 17 14 13 13 10 9 9 11 10 8 7 6 8 8 9 8 5 3 3
21 19 15 17 14 11 10 9 9 9 8 9 11 8 6 4 4 5 6 7 7 7
20 15 13 14 15 12 9 7 10 10 10 8 8 9 9 10 9 7 7 6 9 11
16 14 13 12 12 11 8 8 9 9 10 9 9 9 10 9 7 8 6 6 7 8
17 16 18 17 12 10 10 9 8 8 7 8 10 11 11 11 10 8 7 9 10 10
15 16 16 16 15 13 14 13 13 12 11 11 9 11 10 9 8 8 7 8 8 8
10 14 13 13 13 14 14 14 15 12 11 11 10 10 10 9 8 7 6 7 8 9
14 14 14 11 12 11 10 11 11 11 11 10 11 10 11 12 9 8 8 7 7 8
12 12 13 11 10 10 9 9 9 10 10 11 11 11 13 10 8 9 8 8 7 6
11 13 11 15 14 10 12 11 10 9 9 14 15 12 9 6 4 5 7 9 8 9
6 7 8 9 9 8 7 6 5 8 11 13 14 12 9 5 2 8 5 12 10 7
Wind_Direction
352 348 341 338 335 332 328 335 332 338 347 360 14 20 10 1 344 321 300 283 267 259
347 345 336 330 327 326 325 329 338 343 6 23 37 43 34 27 21 26 31 39 84 308
353 359 352 346 344 345 342 343 4 29 32 38 42 42 45 41 42 43 38 31 25 315
6 359 354 1 354 352 355 8 11 35 37 34 27 29 37 42 34 24 14 351 321 299
5 349 357 360 352 351 352 3 5 22 22 21 16 356 357 9 5 352 348 1 15 27
0 356 357 0 2 9 13 14 6 354 5 12 11 5 349 341 343 341 329 340 351 1
0 357 3 6 7 15 14 4 352 4 21 20 22 19 4 9 357 354 349 0 356 32
4 11 17 14 11 24 17 20 21 33 36 38 43 21 11 7 24 21 30 20 44 42
16 21 22 21 21 25 28 28 31 25 23 31 30 15 28 28 21 28 32 28 27 24
31 27 24 22 24 28 27 31 33 30 32 33 29 30 37 56 48 54 56 49 42 45
26 15 18 23 25 25 26 30 19 23 27 33 29 46 57 54 64 65 59 57 42 36
17 23 23 38 39 25 31 24 22 30 32 44 41 62 64 59 54 56 52 45 38 21
28 41 44 49 49 49 54 60 58 58 48 58 55 64 51 28 49 67 85 77 64 57
37 56 52 32 36 19 2 5 21 48 50 60 63 67 63 57 86 2 21 81 74 44
Height
854 851 848 846 844 841 839 836 833 831 828 827 825 824 823 821 820 819 818 818 819 819
853 850 848 845 843 840 838 835 833 831 829 828 827 825 825 823 821 820 819 819 819 820
853 851 849 845 842 840 838 835 834 831 830 829 828 828 827 825 823 822 822 822 821 821
855 853 850 846 843 841 838 836 834 833 832 831 830 829 828 826 825 824 823 823 822 821
857 854 850 847 844 841 839 837 836 834 833 832 830 829 828 827 827 826 825 823 821 820
858 854 851 848 845 842 840 839 837 835 833 832 831 830 829 828 826 825 824 824 822 821
858 855 852 850 846 844 842 840 839 837 835 834 833 832 830 828 827 826 825 824 824 822
860 857 854 849 847 846 843 841 839 838 836 835 834 833 831 830 828 827 826 826 824 824
863 860 856 853 849 847 845 844 842 840 839 837 836 834 832 831 830 829 828 827 826 826
864 862 859 856 854 851 849 846 844 842 841 840 838 836 834 832 832 831 830 829 828 828
867 864 861 858 856 854 852 849 847 845 844 842 840 838 836 834 833 832 832 831 831 830
869 865 862 860 858 856 853 851 849 848 846 844 843 840 839 837 836 835 835 834 833 831
871 868 866 864 861 859 857 855 852 851 848 847 845 844 841 839 839 838 835 834 835 833
873 871 870 867 865 862 860 858 855 852 851 849 848 846 844 842 841 839 836 835 836 836